• In Spain
  • List of Countries
  • For 7 days
  • Water Temperature
  • Satellite Maps
  • Weather Map
  • Weather Widgets
  • user-avatar
    Login

    Hourly Weather Tibissa

    Today, 15 November, Thursday

    Time Temperature Precipitation Wind Pressure Humidity
    00:00 +13°C° 0 mm 2 mps 688 mmHg 85%
    01:00 +11°C° 0 mm 3 mps 688 mmHg 88%
    02:00 +12°C° 0 mm 2 mps 688 mmHg 89%
    03:00 +12°C° 0 mm 2 mps 687 mmHg 90%
    04:00 +10°C° 0 mm 2 mps 687 mmHg 92%
    05:00 +10°C° 0 mm 2 mps 687 mmHg 92%
    06:00 +10°C° 0 mm 2 mps 687 mmHg 92%
    07:00 +10°C° 0 mm 2 mps 687 mmHg 91%
    08:00 +12°C° 0 mm 2 mps 687 mmHg 83%
    09:00 +12°C° 0 mm 3 mps 687 mmHg 76%
    10:00 +13°C° 0 mm 3 mps 687 mmHg 69%
    11:00 +14°C° 0 mm 3 mps 687 mmHg 63%
    12:00 +17°C° 0 mm 4 mps 687 mmHg 57%
    13:00 +16°C° 0 mm 5 mps 687 mmHg 58%
    14:00 +16°C° 0 mm 5 mps 686 mmHg 58%
    15:00 +16°C° 0 mm 5 mps 686 mmHg 57%
    16:00 +16°C° 0 mm 5 mps 686 mmHg 57%
    17:00 +15°C° 0 mm 4 mps 685 mmHg 63%
    18:00 +14°C° 0 mm 4 mps 685 mmHg 68%
    19:00 +13°C° 0 mm 4 mps 685 mmHg 74%
    20:00 +13°C° 0 mm 4 mps 685 mmHg 78%
    21:00 +12°C° 0 mm 4 mps 685 mmHg 81%
    22:00 +12°C° 0 mm 3 mps 685 mmHg 85%
    23:00 +12°C° 0 mm 3 mps 685 mmHg 87%

    Tomorrow, 16 November, Friday

    Time Temperature Precipitation Wind Pressure Humidity
    00:00 +11°C° 0 mm 3 mps 684 mmHg 89%
    01:00 +12°C° 0 mm 2 mps 684 mmHg 92%
    02:00 +12°C° 0 mm 2 mps 684 mmHg 92%
    03:00 +11°C° 0 mm 3 mps 684 mmHg 92%
    04:00 +11°C° 0 mm 3 mps 684 mmHg 92%
    05:00 +11°C° 0 mm 3 mps 684 mmHg 91%
    06:00 +12°C° 0 mm 2 mps 684 mmHg 89%
    07:00 +12°C° 0 mm 2 mps 684 mmHg 88%
    08:00 +12°C° 0 mm 2 mps 684 mmHg 83%
    09:00 +13°C° 0 mm 2 mps 684 mmHg 78%
    10:00 +14°C° 0 mm 2 mps 685 mmHg 73%
    11:00 +14°C° 0 mm 3 mps 685 mmHg 67%
    12:00 +16°C° 0 mm 3 mps 685 mmHg 61%
    13:00 +17°C° 0 mm 4 mps 685 mmHg 55%
    14:00 +17°C° 0 mm 4 mps 684 mmHg 55%
    15:00 +17°C° 0 mm 4 mps 684 mmHg 55%
    16:00 +17°C° 0 mm 4 mps 684 mmHg 56%
    17:00 +15°C° 0 mm 4 mps 684 mmHg 60%
    18:00 +14°C° 0 mm 3 mps 684 mmHg 64%
    19:00 +14°C° 0 mm 3 mps 684 mmHg 68%
    20:00 +14°C° 0 mm 2 mps 684 mmHg 71%
    21:00 +14°C° 0 mm 2 mps 684 mmHg 74%
    22:00 +13°C° 0 mm 2 mps 684 mmHg 78%
    23:00 +13°C° 0 mm 2 mps 684 mmHg 81%

    Day after tomorrow, 17 November, Saturday

    Time Temperature Precipitation Wind Pressure Humidity
    00:00 +12°C° 0 mm 2 mps 684 mmHg 84%
    01:00 +12°C° 0 mm 1 mps 683 mmHg 87%
    02:00 +11°C° 0 mm 1 mps 683 mmHg 89%
    03:00 +11°C° 0 mm 1 mps 683 mmHg 91%
    04:00 +11°C° 0 mm 1 mps 682 mmHg 93%
    05:00 +10°C° 0 mm 1 mps 682 mmHg 94%
    06:00 +10°C° 0 mm 1 mps 682 mmHg 94%
    07:00 +10°C° 0 mm 1 mps 682 mmHg 94%
    08:00 +11°C° 0 mm 1 mps 682 mmHg 88%
    09:00 +12°C° 0 mm 1 mps 683 mmHg 83%
    10:00 +13°C° 0 mm 1 mps 683 mmHg 77%
    11:00 +14°C° 0.1 mm 1 mps 683 mmHg 71%
    12:00 +14°C° 0.1 mm 1 mps 682 mmHg 66%
    13:00 +14°C° 0.1 mm 0 mps 682 mmHg 61%
    14:00 +15°C° 0.1 mm 1 mps 681 mmHg 60%
    15:00 +15°C° 0.1 mm 1 mps 681 mmHg 59%
    16:00 +15°C° 0.1 mm 2 mps 681 mmHg 58%
    17:00 +15°C° 0.2 mm 1 mps 681 mmHg 62%
    18:00 +14°C° 0.2 mm 1 mps 681 mmHg 66%
    19:00 +13°C° 0.2 mm 1 mps 681 mmHg 70%
    20:00 +13°C° 0 mm 1 mps 681 mmHg 72%
    21:00 +12°C° 0 mm 1 mps 681 mmHg 75%
    22:00 +11°C° 0 mm 0 mps 681 mmHg 77%
    23:00 +11°C° 0 mm 0 mps 681 mmHg 78%

    18 November, Sunday

    Time Temperature Precipitation Wind Pressure Humidity
    00:00 +10°C° 0 mm 0 mps 680 mmHg 79%
    01:00 +10°C° 0 mm 0 mps 680 mmHg 81%
    02:00 +10°C° 0 mm 0 mps 680 mmHg 82%
    03:00 +9°C° 0 mm 0 mps 680 mmHg 83%
    04:00 +9°C° 0 mm 0 mps 679 mmHg 84%
    05:00 +10°C° 0 mm 1 mps 679 mmHg 84%
    06:00 +10°C° 0 mm 1 mps 680 mmHg 83%
    07:00 +10°C° 0 mm 1 mps 680 mmHg 83%
    08:00 +11°C° 0 mm 1 mps 680 mmHg 76%
    09:00 +13°C° 0 mm 1 mps 681 mmHg 70%
    10:00 +14°C° 0 mm 2 mps 682 mmHg 63%
    11:00 +15°C° 0 mm 2 mps 681 mmHg 59%
    12:00 +16°C° 0 mm 3 mps 681 mmHg 54%
    13:00 +17°C° 0 mm 4 mps 681 mmHg 50%
    14:00 +17°C° 0 mm 4 mps 681 mmHg 50%
    15:00 +17°C° 0 mm 4 mps 681 mmHg 49%
    16:00 +17°C° 0 mm 4 mps 680 mmHg 49%
    17:00 +16°C° 0 mm 3 mps 680 mmHg 54%
    18:00 +14°C° 0 mm 3 mps 680 mmHg 59%
    19:00 +13°C° 0 mm 3 mps 680 mmHg 64%
    20:00 +13°C° 0 mm 3 mps 680 mmHg 68%
    21:00 +12°C° 0 mm 3 mps 680 mmHg 71%
    22:00 +11°C° 0 mm 3 mps 680 mmHg 75%
    23:00 +11°C° 0 mm 3 mps 680 mmHg 76%

    19 November, Monday

    Time Temperature Precipitation Wind Pressure Humidity
    00:00 +11°C° 0 mm 3 mps 680 mmHg 77%
    01:00 +11°C° 0 mm 3 mps 679 mmHg 78%
    02:00 +10°C° 0 mm 3 mps 679 mmHg 79%
    03:00 +10°C° 0 mm 3 mps 679 mmHg 80%
    04:00 +10°C° 0 mm 3 mps 678 mmHg 81%
    05:00 +10°C° 0 mm 3 mps 678 mmHg 80%
    06:00 +10°C° 0 mm 3 mps 678 mmHg 80%
    07:00 +10°C° 0 mm 3 mps 678 mmHg 79%
    08:00 +11°C° 0 mm 3 mps 678 mmHg 71%
    09:00 +13°C° 0 mm 4 mps 679 mmHg 64%
    10:00 +14°C° 0 mm 5 mps 679 mmHg 56%
    11:00 +15°C° 0 mm 6 mps 679 mmHg 52%
    12:00 +16°C° 0 mm 7 mps 678 mmHg 48%
    13:00 +16°C° 0 mm 8 mps 678 mmHg 44%
    14:00 +16°C° 0 mm 8 mps 678 mmHg 45%
    15:00 +16°C° 0 mm 8 mps 677 mmHg 46%
    16:00 +15°C° 0 mm 8 mps 677 mmHg 47%
    17:00 +15°C° 0 mm 7 mps 677 mmHg 51%
    18:00 +14°C° 0 mm 6 mps 676 mmHg 55%
    19:00 +13°C° 0 mm 5 mps 676 mmHg 59%
    20:00 +13°C° 0 mm 5 mps 676 mmHg 60%
    21:00 +13°C° 0 mm 5 mps 676 mmHg 62%
    22:00 +13°C° 0 mm 4 mps 676 mmHg 63%
    23:00 +12°C° 0 mm 5 mps 676 mmHg 63%

    20 November, Tuesday

    Time Temperature Precipitation Wind Pressure Humidity
    00:00 +12°C° 0 mm 5 mps 675 mmHg 64%
    01:00 +11°C° 0 mm 6 mps 674 mmHg 65%
    02:00 +11°C° 0.2 mm 6 mps 674 mmHg 67%
    03:00 +10°C° 0.2 mm 5 mps 673 mmHg 69%
    04:00 +10°C° 0.2 mm 5 mps 673 mmHg 71%
    05:00 +9°C° 0 mm 5 mps 673 mmHg 72%
    06:00 +9°C° 0 mm 5 mps 673 mmHg 72%
    07:00 +8°C° 0 mm 6 mps 673 mmHg 73%
    08:00 +10°C° 0 mm 7 mps 674 mmHg 67%
    09:00 +11°C° 0 mm 9 mps 675 mmHg 61%
    10:00 +12°C° 0 mm 10 mps 675 mmHg 54%
    11:00 +12°C° 0 mm 10 mps 676 mmHg 52%
    12:00 +13°C° 0 mm 10 mps 676 mmHg 49%
    13:00 +14°C° 0 mm 11 mps 676 mmHg 47%
    14:00 +14°C° 0 mm 11 mps 677 mmHg 47%
    15:00 +14°C° 0 mm 11 mps 677 mmHg 47%
    16:00 +13°C° 0 mm 11 mps 677 mmHg 47%
    17:00 +13°C° 0 mm 9 mps 678 mmHg 51%
    18:00 +12°C° 0 mm 8 mps 678 mmHg 55%
    19:00 +11°C° 0 mm 6 mps 679 mmHg 58%
    20:00 +10°C° 0 mm 6 mps 679 mmHg 60%
    21:00 +10°C° 0 mm 5 mps 680 mmHg 62%
    22:00 +11°C° 0 mm 4 mps 680 mmHg 63%
    23:00 +10°C° 0 mm 3 mps 681 mmHg 65%
    Show more